{"data":{"norad_id":55318,"intl_designator":"2023-010BB","name":"STARLINK-5180","alt_names":[],"object_type":"PAYLOAD","status":"ACTIVE","operator":null,"country":"US","launch_date":"2023-01-19","launch_site_code":"AFWTR","launch_vehicle":null,"mission":null,"orbit_class":"UNKNOWN","rcs_meters":null,"size_class":null,"mass_kg":null,"dimensions":null,"purposes":["comms"],"wikipedia_slug":null,"has_3d_model":false,"image_url":null,"decayed_at":null,"tle_current":{"epoch":"2026-09-20T22:00:03.000096Z","epoch_age_seconds":60717,"freshness":"FRESH","line1":"1 55318U 23010BB  26263.91670139  .00051456  00000+0  35147-2 0  9995","line2":"2 55318  70.0007 232.1318 0003815 232.3452 271.6622 15.05886873  5660","mean_motion":15.05886873,"eccentricity":0.0003815,"inclination_deg":70.0007,"raan_deg":232.1318,"arg_perigee_deg":232.3452,"mean_anomaly_deg":271.6622,"bstar":0.0035147,"rev_number":566,"period_min":95.624712972712,"perigee_km":546.14204422397,"apogee_km":551.42728545424,"semimajor_km":6926.9216648391,"source":"CELESTRAK","updated_at":"2026-09-21T09:00:33.176919Z"}}}